Weather History for Bonaire, Bonaire

Change the Weather History Date:

Thursday, October 4, 2012

  Actual Average Record
Temperature  
Mean Temperature 86 °F -  
Max Temperature 90 °F 88 °F 93 °F (2003)
Min Temperature 82 °F 81 °F 75 °F (2010)
Cooling Degree Days 21    
Growing Degree Days 36 (Base 50)    
Moisture  
Dew Point 76 °F    
Average Humidity 74    
Maximum Humidity 84    
Minimum Humidity 60    
Precipitation  
Precipitation 0.00 in - - ()
Sea Level Pressure  
Sea Level Pressure 29.87 in    
Wind  
Wind Speed 10 mph ()    
Max Wind Speed 16 mph    
Max Gust Speed -    
Visibility 7.6 miles    
Events      
Averages and records for this station are not official NWS values.
T = Trace of Precipitation, MM = Missing Value Source: Averaged Metar Reports

Daily Weather History Graph

Daily Weather History Graph

Search for Another Location

Airport:

Trip Planner

Search our weather history database for the weather conditions in past years. The results will help you decide how hot, cold, wet, or windy it might be!

Date:

Astronomy

Oct. 04, 2012 Rise Set
Actual Time 6:22 AM AST 6:20 PM AST
Civil Twilight 6:01 AM AST 6:42 PM AST
Nautical Twilight 5:36 AM AST 7:06 PM AST
Astronomical Twilight 5:11 AM AST 7:31 PM AST
Moon 9:39 PM AST (10/4) 9:51 AM AST (10/4)
Length of Visible Light 12h 40m
Length of Day
11h 58m
Waning Gibbous, 82% of the Moon is Illuminated
Oct 4
Waning Gibbous
Oct 8
Last Quarter
Oct 15
New
Oct 21
First Quarter
Oct 29
Full

Hourly Weather History & Observations

Time (AST) Temp. Heat Index Dew Point Humidity Pressure Visibility Wind Dir Wind Speed Gust Speed Precip Events Conditions
12:00 AM 82.4 °F 90.9 °F 77.0 °F 84% 29.92 in - North - - N/A   Unknown
1:00 AM 82.4 °F 90.9 °F 77.0 °F 84% 29.92 in - North - - N/A   Unknown
2:00 AM 82 °F - 75 °F 75%  in 6 mi ESE 11.5 mph - -   Clear
2:00 AM 82.4 °F 89.5 °F 75.2 °F 79% 29.89 in - North - - N/A   Unknown
3:00 AM 82.4 °F 89.5 °F 75.2 °F 79% 29.89 in - North - - N/A   Unknown
4:00 AM 82.4 °F 89.5 °F 75.2 °F 79% 29.89 in - North - - N/A   Unknown
5:00 AM - - - %  in - Calm Calm - -  
5:00 AM 82.4 °F 89.5 °F 75.2 °F 79% 29.89 in - North - - N/A   Unknown
6:00 AM 82.4 °F 89.5 °F 75.2 °F 79% 29.89 in - North - - N/A   Unknown
10:00 AM 87.8 °F 99.7 °F 77.0 °F 70% 29.95 in 6.2 mi East 13.8 mph - N/A   Partly Cloudy
11:00 AM 89.6 °F 102.2 °F 77.0 °F 66% 29.92 in 6.2 mi East 16.1 mph - N/A   Scattered Clouds
12:00 PM 89.6 °F 102.2 °F 77.0 °F 66% 29.92 in 6.2 mi East 13.8 mph - N/A   Scattered Clouds
2:00 PM 89.6 °F 99.8 °F 75.2 °F 62% 29.86 in - North - - N/A   Unknown
3:00 PM 89.6 °F 99.8 °F 75.2 °F 62% 29.83 in 6.2 mi East 12.7 mph - N/A   Scattered Clouds
4:00 PM 87.8 °F 99.7 °F 77.0 °F 70% 29.83 in 6.2 mi East 12.7 mph - N/A   Scattered Clouds
5:00 PM 87 °F - 75 °F 60% 29.83 in 22 mi East 10.4 mph - -   Partly Cloudy
5:00 PM 87.8 °F 97.6 °F 75.2 °F 66% 29.80 in 6.2 mi East 10.4 mph - N/A   Scattered Clouds
6:00 PM 84.2 °F 94.1 °F 77.0 °F 79% 29.83 in - North - - N/A   Unknown
7:00 PM 84.2 °F 94.1 °F 77.0 °F 79% 29.83 in - North - - N/A   Unknown
8:00 PM 83 °F - 77 °F 78% 29.86 in 19 mi East 9.2 mph - -   Partly Cloudy
8:00 PM 84.2 °F 94.1 °F 77.0 °F 79% 29.86 in 6.2 mi East 9.2 mph - N/A   Scattered Clouds